CLASSIFICA

CORRIFREGENE

(10/02/2019)

DIVISIONI:
COMPETITIVA     CLASSIFICA:   ASSOLUTA    M     F    
CATEGORIE:   TUTTE    |   SF   |   SF35   |   SF40   |   SF45   |   SF50   |   SF55   |   SF60   |   SF65  
ALTRO: Classifica Squadre 
FILTRO:
  Atleta      Team        Pulisci       Atleti classificati COMPETITIVA: 946  

Cliccare sulle colonne per cambiare ordinamento
Azioni - Pos. M/F Cat. P.Cat. Pett Naz Atleta Squadra Tempo Distacco in tempo Distacco in metri Min/Km RealTime
1 361SF3502520CIPRIETTI MICHELAPOD. GRUPPO SOLIDARIETA01:25:55 00:11:39 2.859 00:04:05 01:25:55
2 702SF3501367TIRELLI CECILIARUNNING EVOLUTION COLLINE ROMANE01:30:09 00:15:53 3.715 00:04:17 01:30:09
3 1023SF5001772LUNGU LUMINITAG.S. BANCARI ROMANI01:33:38 00:19:22 4.361 00:04:26 01:33:13
4 1534SF4016BOSCO HANAA.S.C.D. ISOLA SACRA01:36:48 00:22:32 4.908 00:04:35 01:36:47
5 1755SF3512441ROMEO SILVIAPOD. GRUPPO SOLIDARIETA'01:38:11 00:23:55 5.136 00:04:39 01:37:19
6 1766SF4511768MACINENTI FRANCESCAA.S.D. CENTRO FITNESS MONTELLO01:38:13 00:23:57 5.141 00:04:40 01:37:31
7 1777SF5011824SALVIONI SIMONAPODISTICA CASALOTTI01:38:13 00:23:57 5.141 00:04:40 01:38:07
8 1818SF4521580BERARDINELLI LOREDANAG.S. BANCARI ROMANI01:38:31 00:24:15 5.190 00:04:40 01:38:16
9 1879SF12383PIMPINELLA FRANCESCARUNNING EVOLUTION COLLINE ROMANE01:39:04 00:24:48 5.278 00:04:42 01:38:55
10 19910SF22207SPAZIANI IRENEA.S. AMATORI VILLA PAMPHILI01:39:31 00:25:15 5.350 00:04:43 01:39:15
11 21711SF4531663GUERRINI FRANCESCAATLETICA SANTA MARINELLA01:40:37 00:26:21 5.522 00:04:46 01:40:27
12 21812SF5022083PIZZUTI STEFANIARUNNING EVOLUTION COLLINE ROMANE01:40:38 00:26:22 5.524 00:04:46 01:40:28
13 23313SF5032252PENDENZA DANIELAA.S.D. ATLETICA MONTE MARIO01:41:12 00:26:56 5.611 00:04:48 01:41:04
14 23814SF3522039LENTO FRANCESCAS.S. LAZIO ATLETICA LEGGERA01:41:16 00:27:00 5.622 00:04:48 01:40:50
15 24315SF5511796MIGNOGNA MARIA GRAZIAA.S.D. TRAIL DEI DUE LAGHI01:41:41 00:27:25 5.685 00:04:49 01:41:28
16 25216SF4542034MAROCCHINI IRISASD OLIMPIAEUR CAMP01:41:58 00:27:42 5.728 00:04:50 01:41:45
17 27617SF4021716YORK JESSICARUNNERS FOR EMERGENCY01:42:32 00:28:16 5.813 00:04:52 01:42:07
18 28118SF4551554DI BONAVENTURA ALESSIA1/2 MARATONA A STAFFETTA01:42:45 00:28:29 5.845 00:04:52 01:42:27
19 28519SF4562364PIRAS ROBERTAPOD. GRUPPO SOLIDARIETA01:42:53 00:28:37 5.865 00:04:53 01:42:21
20 30120SF4572105ESPOSITI MARZIAJUVENIA ARL01:43:33 00:29:17 5.962 00:04:55 01:43:26
21 31121SF4582351LIPPI FRANCESCAPOD. GRUPPO SOLIDARIETA01:44:08 00:29:52 6.047 00:04:56 01:43:25
22 34222SF31603CIOCCHETTI VALERIAA.S.D. MAGIC TRAINING01:45:27 00:31:11 6.235 00:05:00 01:45:01
23 35623SF5042253PERUZZI LAURAA.S.D. ATLETICA MONTE MARIO01:45:52 00:31:36 6.293 00:05:01 01:45:32
24 36824SF5051707PESAVENTO LIVIARUNNERS FOR EMERGENCY01:46:29 00:32:13 6.379 00:05:03 01:46:08
25 37225SF5061685CONTI CLAUDIARUNNERS FOR EMERGENCY01:46:44 00:32:28 6.414 00:05:04 01:46:24
26 37826SF5071892JACOROSSI RAFFAELARUNCARD FIDAL01:47:05 00:32:49 6.461 00:05:05 01:46:17
27 38227SF5082276DI GIOVANNI CLAUDIAMARATHON ROMA CASTELFUSANO01:47:21 00:33:05 6.498 00:05:06 01:46:48
28 38328SF3532235GALEOTTI FRANCESCAA.S.D. ATLETICA MONTE MARIO01:47:26 00:33:10 6.509 00:05:06 01:47:05
29 39929SF3542260TONNI MICHELAA.S.D. ATLETICA MONTE MARIO01:48:03 00:33:47 6.592 00:05:08 01:47:50
30 40130SF4592126CASAMASSIMA RITAA.S. AMATORI VILLA PAMPHILI01:48:05 00:33:49 6.597 00:05:08 01:47:57
31 40831SF5091878TRAVAGLIATI PATRIZIAUISP ROMA01:48:27 00:34:11 6.646 00:05:09 01:48:18
32 41132SF4031537GENOVESE MERIA.S.D. LBM SPORT TEAM01:48:30 00:34:14 6.652 00:05:09 01:48:02
33 41533SF4042321BINI TIZIANAPOD. GRUPPO SOLIDARIETA01:48:39 00:34:23 6.672 00:05:09 01:47:34
34 41734SF45101823RINALDI SIMONAPODISTICA CASALOTTI01:48:49 00:34:33 6.694 00:05:10 01:48:42
35 41935SF3552250PAOLUCCI VALENTINAA.S.D. ATLETICA MONTE MARIO01:48:53 00:34:37 6.703 00:05:10 01:48:39
36 42236SF41782TANCREDI VALERIADUE PONTI SRL01:48:55 00:34:39 6.708 00:05:10 01:48:43
37 42737SF4052131CORINALDESI FEDERICAA.S. AMATORI VILLA PAMPHILI01:49:06 00:34:50 6.732 00:05:10 01:49:03
38 43038SF4062508MAGNAGO LISAPODISTI MARATONA DI ROMA01:49:16 00:35:00 6.754 00:05:11 01:48:51
39 44039SF51742DRESDA ORNELLADUE PONTI SRL01:49:24 00:35:08 6.771 00:05:11 01:49:13
40 44240SF50102139DI SALVATORE ANNAA.S. AMATORI VILLA PAMPHILI01:49:28 00:35:12 6.780 00:05:12 01:49:22
41 44741SF45111884SABINI FLAMINIACIRCOLO CANOTTIERI ANIENE01:49:40 00:35:24 6.806 00:05:12 01:49:09
42 45242SF3561970DI BRACCIO ALESSANDROASD RUNNER TRAINER01:49:56 00:35:40 6.841 00:05:13 01:49:02
43 45343SF45122055ALESSANDRELLI MARUSKARUNNERS FOR EMERGENCY01:50:07 00:35:51 6.864 00:05:13 01:49:46
44 46344SF62410CONCAS TATIANAG.S. CAT SPORT ROMA01:50:27 00:36:11 6.907 00:05:14 01:50:18
45 46945SF45131544GALOTTI CRISTIANAA.S.D. TRA LE RIGHE01:50:38 00:36:22 6.931 00:05:15 01:49:45
46 47446SF3571607VERGARI VALERIAA.S.D. MAGIC TRAINING01:50:57 00:36:41 6.971 00:05:16 01:50:51
47 47847SF3581964VANAT OLEKSANDRAG.S. CAT SPORT ROMA01:51:13 00:36:57 7.005 00:05:17 01:50:52
48 48548SF50112320BIANCHETTI MARIAPOD. GRUPPO SOLIDARIETA01:51:24 00:37:08 7.028 00:05:17 01:50:17
49 48649SF4071706MOGLIONI SILVIAWOMAN TRIATHLON ITALIA ASD01:51:26 00:37:10 7.032 00:05:17 01:50:42
50 49650SF50121852CARUSO ANTONELLAA.S.D. VIRTUS VILLA ADA01:52:03 00:37:47 7.110 00:05:19 01:51:40
51 49851SF5521720SERGOLA MARIA RITAUISP RIETI01:52:07 00:37:51 7.118 00:05:19 01:51:45
52 49952SF6011779CASALINI DANIELARUNCARD FIDAL01:52:08 00:37:52 7.120 00:05:19 01:51:53
53 50053SF4081942FACCIOLO SABINAG.S. CAT SPORT ROMA01:52:08 00:37:52 7.120 00:05:19 01:51:38
54 51154SF4091681BUSCEMI CINZIA ELISABETTARUNNERS FOR EMERGENCY01:52:33 00:38:17 7.172 00:05:20 01:52:26
55 51255SF5531692PAOLA FILOSOFIRUNNERS FOR EMERGENCY01:52:38 00:38:22 7.182 00:05:21 01:52:18
56 51356SF71907GARGIULLI GIORGIAMONTI DELLA TOLFA L'AIRONE01:52:39 00:38:23 7.184 00:05:21 01:52:05
57 51657SF40102136DI CONZA MICHELAA.S. AMATORI VILLA PAMPHILI01:52:45 00:38:29 7.196 00:05:21 01:52:38
58 51858SF40111842RAFFO FEDERICAUISP ROMA01:52:51 00:38:35 7.209 00:05:21 01:52:13
59 52059SF50131900SPACCINO LOLITAPODISTI VALMONTONE01:52:57 00:38:41 7.221 00:05:21 01:52:36
60 52360SF3591944FIERIMONTE CHIARAG.S. CAT SPORT ROMA01:53:05 00:38:49 7.237 00:05:22 01:52:51
61 53161SF50142072FARRONATO LILIANARUNNING EVOLUTION COLLINE ROMANE01:53:19 00:39:03 7.266 00:05:22 01:52:41
62 55162SF45141765WARTHON OLINDAA.S.C.D. ISOLA SACRA01:54:06 00:39:50 7.361 00:05:25 01:53:23
63 55563SF5541755DIODATI MARCELLAA.S.C.D. ISOLA SACRA01:54:24 00:40:08 7.397 00:05:26 01:53:43
64 55864SF40122155IODICE MARGHERITAA.S. AMATORI VILLA PAMPHILI01:54:30 00:40:14 7.409 00:05:26 01:54:19
65 55965SF5552436TUPINI PIERAA.S.D. LIBERTAS OSTIA RUNNER AVIS01:54:30 00:40:14 7.409 00:05:26 01:54:05
66 56366SF50152411DE FELICE FABIOLAG.S. CAT SPORT ROMA01:54:48 00:40:32 7.444 00:05:27 01:54:27
67 56767SF6022506FRALLICCIARDI LOREDANAASD PIANO MA ARRIVIAMO01:54:57 00:40:41 7.462 00:05:27 01:54:26
68 56968SF35102249ORECCHIA SILVIAA.S.D. ATLETICA MONTE MARIO01:54:58 00:40:42 7.464 00:05:27 01:54:45
69 57169SF50162511CIBODDO GIOVANNAG.S. BANCARI ROMANI01:55:03 00:40:47 7.474 00:05:27 01:54:53
70 57670SF40132152GRECO LUCIAA.S. AMATORI VILLA PAMPHILI01:55:15 00:40:59 7.498 00:05:28 01:55:08
71 57771SF50172166MARASCO ELISAA.S. AMATORI VILLA PAMPHILI01:55:21 00:41:05 7.510 00:05:28 01:54:43
72 58072SF50182223CAGLIANI VERONICA PALMAA.S.D. ATLETICA MONTE MARIO01:55:30 00:41:14 7.527 00:05:29 01:55:16
73 58173SF81972ISAIJA ALESSIAASD RUNNER TRAINER01:55:38 00:41:22 7.543 00:05:29 01:54:45
74 58674SF35111585LANZARO NATALIERUNCARD FIDAL01:55:47 00:41:31 7.560 00:05:30 01:55:22
75 58875SF50192121BUFFOLI SANDRAA.S. AMATORI VILLA PAMPHILI01:55:54 00:41:38 7.574 00:05:30 01:55:47
76 59076SF40141723PANDEL ANETAAS ALBATROS ROMA01:55:58 00:41:42 7.582 00:05:30 01:55:31
77 59177SF5562280PIETRANTONIO FILOMENAMARATHON ROMA CASTELFUSANO01:56:05 00:41:49 7.595 00:05:30 01:55:53
78 60178SF5572151GOTTI LORENZAA.S. AMATORI VILLA PAMPHILI01:56:39 00:42:23 7.661 00:05:32 01:56:04
79 60579SF45151638RUSSO EMANUELASABINA MARATHON CLUB01:56:46 00:42:30 7.674 00:05:32 01:56:02
80 60680SF50202374SPURI OMBRETTAPOD. GRUPPO SOLIDARIETA01:56:46 00:42:30 7.674 00:05:32 01:56:11
81 60781SF6032029DELLA BELLA CARLAASD OLIMPIAEUR CAMP01:56:51 00:42:35 7.684 00:05:33 01:56:46
82 61382SF40151821MELFI ROSA SINFOROSAPODISTICA CASALOTTI01:57:05 00:42:49 7.711 00:05:33 01:56:17
83 61683SF45162042AGNISETTA IRENEASD BRAVETTA RUNNERS01:57:13 00:42:57 7.726 00:05:34 01:56:28
84 62184SF35122371ROSATI SARAPOD. GRUPPO SOLIDARIETA01:57:25 00:43:09 7.748 00:05:34 01:56:22
85 63285SF92509BACIUCCHI LUDOVICAG.S. BANCARI ROMANI01:57:52 00:43:36 7.799 00:05:35 01:57:28
86 63586SF40162215VERNET SOPHIEA.S. AMATORI VILLA PAMPHILI01:57:53 00:43:37 7.801 00:05:35 01:57:32
87 63887SF5582419LAZZAROTTI ROBERTAG.S. CAT SPORT ROMA01:57:54 00:43:38 7.803 00:05:36 01:56:51
88 64988SF5591533PEROTTI NADIAA.S.D. LBM SPORT TEAM01:58:21 00:44:05 7.854 00:05:37 01:58:05
89 65289SF50212192PREZIOSI ANTONELLAA.S. AMATORI VILLA PAMPHILI01:58:23 00:44:07 7.857 00:05:37 01:58:06
90 66390SF101590BARTOMIOLI NOEMIA.S.D. ATLETICA VILLA GUGLIELMI01:59:01 00:44:45 7.928 00:05:39 01:58:14
91 66691SF45171808CAPPELLANO BARBARAPODISTICA CASALOTTI01:59:05 00:44:49 7.935 00:05:39 01:58:54
92 67592SF6512115BARGERO LUISAA.S. AMATORI VILLA PAMPHILI01:59:47 00:45:31 8.012 00:05:41 01:59:38
93 67793SF45182199ROVELLI FRANCESCAA.S. AMATORI VILLA PAMPHILI01:59:50 00:45:34 8.017 00:05:41 01:59:43
94 67994SF40172145FONTECEDRO CRISTINAA.S. AMATORI VILLA PAMPHILI01:59:51 00:45:35 8.019 00:05:41 01:58:53
95 68095SF45192130CONTI ROBERTAA.S. AMATORI VILLA PAMPHILI01:59:52 00:45:36 8.021 00:05:41 01:59:44
96 68496SF50221946GIACOVELLI PATRIZIAG.S. CAT SPORT ROMA01:59:57 00:45:41 8.030 00:05:41 01:59:31
97 68697SF112196RASPANTI MARIA ROSARIAA.S. AMATORI VILLA PAMPHILI02:00:03 00:45:47 8.041 00:05:42 01:59:10
98 69598SF40182381ZOCCHI MARIA ENRICAPOD. GRUPPO SOLIDARIETA02:00:17 00:46:01 8.066 00:05:42 01:59:41
99 69699SF121709REA FRANCESCARUNNERS FOR EMERGENCY02:00:17 00:46:01 8.066 00:05:42 01:59:55
100 697100SF40191855ASTOLFI GIORGIARUNCARD FIDAL02:00:17 00:46:01 8.066 00:05:42 01:59:45
101 699101SF131619D'ORTA CAMILLAASD X-SOLID SPORT LAB02:00:24 00:46:08 8.079 00:05:43 01:59:45
102 706102SF35131623GRAVANTE VALERIAASD X-SOLID SPORT LAB02:00:41 00:46:25 8.110 00:05:43 02:00:04
103 708103SF45202222BROCCHIERI TIZIANAA.S.D. ATLETICA MONTE MARIO02:00:48 00:46:32 8.122 00:05:44 02:00:34
104 711104SF141684COCCIA CRISTINARUNNERS FOR EMERGENCY02:01:16 00:47:00 8.172 00:05:45 02:00:39
105 716105SF152001UCCI CHIARARUNCARD FIDAL02:01:42 00:47:26 8.218 00:05:46 02:00:41
106 720106SF45212197RAZZINI CINZIAA.S. AMATORI VILLA PAMPHILI02:02:09 00:47:53 8.265 00:05:48 02:01:59
107 721107SF40202363PILIU ANGELAPOD. GRUPPO SOLIDARIETA02:02:15 00:47:59 8.276 00:05:48 02:01:52
108 725108SF45222098MARANI TORO CAROLAA.S.D. PFIZER ITALIA RUNNING TEAM02:02:20 00:48:04 8.285 00:05:48 02:01:27
109 727109SF40211769SALVATORI SARATIVOLI MARATHON02:02:34 00:48:18 8.309 00:05:49 02:02:01
110 728110SF50232033MAGLIO MANUELAASD OLIMPIAEUR CAMP02:02:35 00:48:19 8.311 00:05:49 02:02:29
111 735111SF50242071DE NARDO ANTONELLARUNNING EVOLUTION COLLINE ROMANE02:03:04 00:48:48 8.361 00:05:50 02:02:52
112 736112SF6522357MATRICARDI MARIAPOD. GRUPPO SOLIDARIETA02:03:05 00:48:49 8.363 00:05:50 02:02:09
113 738113SF50252026CASERTA CLAUDIAASD OLIMPIAEUR CAMP02:03:08 00:48:52 8.368 00:05:50 02:02:19
114 741114SF50261918SERGIACOMI ALESSANDRAA.S.D. VEGAN POWER TEAM02:03:28 00:49:12 8.402 00:05:51 02:02:34
115 743115SF55102251PELLEGRINI MARINAA.S.D. ATLETICA MONTE MARIO02:03:50 00:49:34 8.440 00:05:52 02:03:13
116 745116SF45232303DI PALMA FILOMENAATLETICA FORUM SPORT CENTER02:03:57 00:49:41 8.451 00:05:53 02:03:03
117 755117SF6532154HIRNYAK SOFIYAA.S. AMATORI VILLA PAMPHILI02:04:47 00:50:31 8.536 00:05:55 02:04:34
118 758118SF50271903MARATEA DANIELAPIANO MA ARRIVIAMO02:05:16 00:51:00 8.584 00:05:56 02:04:44
119 762119SF55112408ATTILI MARIARITAG.S. CAT SPORT ROMA02:05:20 00:51:04 8.591 00:05:57 02:05:11
120 768120SF50282212TONUCCI ALESSANDRAA.S. AMATORI VILLA PAMPHILI02:05:46 00:51:30 8.634 00:05:58 02:05:03
121 771121SF55122087ROSSI MARIA ANTONIETTARUNNING EVOLUTION COLLINE ROMANE02:06:05 00:51:49 8.665 00:05:59 02:05:54
122 780122SF35141627SIMEONE ELENAASD X-SOLID SPORT LAB02:06:52 00:52:36 8.742 00:06:01 02:06:15
123 781123SF45241943FELICI CLAUDIAG.S. CAT SPORT ROMA02:06:59 00:52:43 8.753 00:06:01 02:05:57
124 783124SF45252220ZAMPETTI VANESSAA.S. AMATORI VILLA PAMPHILI02:07:22 00:53:06 8.790 00:06:02 02:06:25
125 784125SF55132023BOLDRINI ALESSANDRAASD OLIMPIAEUR CAMP02:07:28 00:53:12 8.800 00:06:03 02:06:38
126 787126SF45262044DE DONATIS SIMONETTAASD BRAVETTA RUNNERS02:07:40 00:53:24 8.819 00:06:03 02:06:55
127 789127SF40222133CRUDELE ALESSANDRAA.S. AMATORI VILLA PAMPHILI02:07:49 00:53:33 8.834 00:06:04 02:06:50
128 791128SF35151640SCIARRA PAOLASABINA MARATHON CLUB02:08:00 00:53:44 8.851 00:06:04 02:07:18
129 794129SF40231639SACCO SILVIASABINA MARATHON CLUB02:08:15 00:53:59 8.875 00:06:05 02:07:32
130 796130SF45272333D'ANTONIO ILARIAPOD. GRUPPO SOLIDARIETA02:08:31 00:54:15 8.900 00:06:06 02:08:18
131 804131SF50291915FIORENTINI PATRIZIARUNNERS FOR EMERGENCY02:09:16 00:55:00 8.971 00:06:08 02:08:45
132 806132SF45282340FLOQUET VALERIAPOD. GRUPPO SOLIDARIETA02:09:21 00:55:05 8.979 00:06:08 02:08:56
133 807133SF40241620DE ROMANIS ELISABETTAASD X-SOLID SPORT LAB02:09:23 00:55:07 8.982 00:06:08 02:08:45
134 808134SF55141986GAMBELLI LORETTAPOLISPORTIVA COLLI ANIENE ASD02:09:31 00:55:15 8.994 00:06:09 02:08:53
135 809135SF55151983BARLETTA LEONISIAPOLISPORTIVA COLLI ANIENE ASD02:09:31 00:55:15 8.994 00:06:09 02:08:48
136 817136SF40251854CHIARA MORELLATORUNCARD FIDAL02:10:01 00:55:45 9.041 00:06:10 02:09:36
137 818137SF162149GERVASONI SIMONAA.S. AMATORI VILLA PAMPHILI02:10:04 00:55:48 9.046 00:06:10 02:09:55
138 822138SF40262382MORETTI ANNA MARIARUNNING EVOLUTION COLLINE ROMANE02:10:20 00:56:04 9.070 00:06:11 02:10:09
139 824139SF40271641TAGLIAFERRI DANILOSABINA MARATHON CLUB02:10:37 00:56:21 9.096 00:06:12 02:09:53
140 826140SF40281634DI GIOVENALE MARIANNASABINA MARATHON CLUB02:10:39 00:56:23 9.099 00:06:12 02:09:57
141 827141SF50301799SAVINO SILVIAA.S.D. TRAIL DEI DUE LAGHI02:10:45 00:56:29 9.109 00:06:12 02:09:50
142 830142SF50311695LOLLOBRIGIDA ROBERTARUNNERS FOR EMERGENCY02:11:03 00:56:47 9.136 00:06:13 02:09:59
143 833143SF45291810CICCHINELLI SONIAPODISTICA CASALOTTI02:11:11 00:56:55 9.148 00:06:13 02:11:01
144 834144SF172442ZAPPONINI ANGELICARUNCARD FIDAL02:11:12 00:56:56 9.150 00:06:13 02:10:16
145 837145SF40291825SARROCCHI LAURAPODISTICA CASALOTTI02:11:27 00:57:11 9.172 00:06:14 02:11:10
146 839146SF50321834GENTILE FELITIARUNCARD FIDAL02:11:29 00:57:13 9.175 00:06:14 02:10:42
147 842147SF35161648CAPALBO LAURAG.S. BANCARI ROMANI02:11:39 00:57:23 9.190 00:06:15 02:10:51
148 848148SF50331792FILIPPONE ROSSANAA.S.D. TRAIL DEI DUE LAGHI02:12:51 00:58:35 9.298 00:06:18 02:12:32
149 851149SF50341754CORRADO ANNA MARIAA.S.C.D. ISOLA SACRA02:13:00 00:58:44 9.311 00:06:19 02:12:19
150 852150SF6041838FAGIOLI CARLAASD U.S. ROMA 8302:13:00 00:58:44 9.311 00:06:19 02:12:30
151 854151SF40302255PUTZOLU MONICAA.S.D. ATLETICA MONTE MARIO02:13:05 00:58:49 9.319 00:06:19 02:12:51
152 857152SF45301753CAPONE SIMONAA.S.C.D. ISOLA SACRA02:13:20 00:59:04 9.341 00:06:19 02:12:39
153 860153SF45311731DI FILIPPO ANGELAA.S.D. RUN FOR FUN02:13:33 00:59:17 9.360 00:06:20 02:12:23
154 861154SF50352413DI MARTINO FLORIANAG.S. CAT SPORT ROMA02:13:41 00:59:25 9.371 00:06:20 02:12:42
155 864155SF50362102TAMBURRINI MARIA TULLIAA.S.D. PFIZER ITALIA RUNNING TEAM02:13:49 00:59:33 9.383 00:06:21 02:13:05
156 871156SF45322414FACCIOLO VALERIAG.S. CAT SPORT ROMA02:15:17 01:01:01 9.510 00:06:25 02:14:12
157 872157SF6051653GASTALDELLO PATRIZIAVILLA AURELIA SPORTING CLUB02:15:18 01:01:02 9.511 00:06:25 02:14:36
158 874158SF35172548DILETTI SILVIAPOD. GRUPPO SOLIDARIETA02:15:33 01:01:17 9.533 00:06:26 02:14:35
159 876159SF50371600VELARDI LAURAA.S.D. ATLETICA VILLA GUGLIELMI02:16:34 01:02:18 9.619 00:06:29 02:15:41
160 877160SF50381932CAVALIERI LOREDANAG.S. CAT SPORT ROMA02:17:09 01:02:53 9.667 00:06:30 02:16:40
161 878161SF45331937DE CRISTOFARO ANTONELLAG.S. CAT SPORT ROMA02:17:23 01:03:07 9.687 00:06:31 02:16:26
162 879162SF6541613TOMASINO FRANCESCAA.S.D. PODISTICA POMEZIA02:17:28 01:03:12 9.694 00:06:31 02:17:11
163 882163SF40312201SALUCCI SILVIAA.S. AMATORI VILLA PAMPHILI02:18:02 01:03:46 9.741 00:06:33 02:17:09
164 884164SF55161715MICILLO ANGELAA.S.C.D. ISOLA SACRA02:18:21 01:04:05 9.766 00:06:34 02:17:32
165 886165SF181978SAITTA VALENTINAASD RUNNER TRAINER02:18:37 01:04:21 9.788 00:06:34 02:17:43
166 887166SF55172339FALERNO ANTONELLAPOD. GRUPPO SOLIDARIETA02:18:40 01:04:24 9.792 00:06:35 02:18:21
167 888167SF45341624LUCIA LINAASD X-SOLID SPORT LAB02:18:40 01:04:24 9.792 00:06:35 02:18:02
168 894168SF45351689DE VITO EMANUELARUNNERS FOR EMERGENCY02:20:41 01:06:25 9.954 00:06:40 02:19:49
169 895169SF50391708RASPA MARIANGELARUNNERS FOR EMERGENCY02:20:53 01:06:37 9.970 00:06:41 02:19:49
170 897170SF50401573FAUSTI FABRIZIADUE PONTI SRL02:21:30 01:07:14 10.018 00:06:43 02:21:18
171 898171SF55182440OTTAVI PAOLARUNCARD FIDAL02:21:37 01:07:21 10.028 00:06:43 02:20:36
172 901172SF45361750OLIVA FRANCESCAUISP CIVITAVECCHIA02:22:36 01:08:20 10.104 00:06:46 02:22:18
173 906173SF6551788BLOM MAJLISA.S.D. TRAIL DEI DUE LAGHI02:24:57 01:10:41 10.282 00:06:53 02:24:37
174 909174SF35181990CARDARELLI VALERIAA.S.D. ATLETICA PEGASO02:26:00 01:11:44 10.360 00:06:55 02:24:52
175 911175SF40321746REGGIANI ILARIAKALI KALASAG E SPORT ESTREMI02:26:32 01:12:16 10.399 00:06:57 02:26:00
176 913176SF55192434CECCONI TIZIANAPODISTICA MARE DI ROMA02:27:04 01:12:48 10.437 00:06:59 02:26:13
177 915177SF6062433CARUGHI MARIA ANTONIETTAPODISTICA MARE DI ROMA02:27:10 01:12:54 10.445 00:06:59 02:26:18
178 917178SF45371688DE ANGELIS FRANCESCARUNNERS FOR EMERGENCY02:27:35 01:13:19 10.475 00:07:00 02:26:30
179 920179SF45381717BERARDI NADIAA.S.D. ATLETICA PEGASO02:27:54 01:13:38 10.497 00:07:01 02:27:09
180 921180SF50412422MARTINEZ MARISELG.S. CAT SPORT ROMA02:28:08 01:13:52 10.514 00:07:02 02:27:12
181 923181SF55202287TESTINI GABRIELLAMARATHON ROMA CASTELFUSANO02:29:15 01:14:59 10.593 00:07:05 02:28:14
182 925182SF6562284SANGUIGNI VALERIAMARATHON ROMA CASTELFUSANO02:29:58 01:15:42 10.643 00:07:07 02:28:53
183 928183SF35192007SANTARELLI GIULIARUNNING CLUB MARATONA DI ROMA02:30:44 01:16:28 10.696 00:07:09 02:30:22
184 934184SF50421929BORGHESE ALESSANDRAG.S. CAT SPORT ROMA02:36:33 01:22:17 11.082 00:07:26 02:35:35
185 939185SF6572354MADONNA GIUSEPPINAPOD. GRUPPO SOLIDARIETA02:37:48 01:23:32 11.162 00:07:29 02:37:30
186 942186SF50432418LA MELZA MARINAG.S. CAT SPORT ROMA02:38:58 01:24:42 11.234 00:07:32 02:38:17
187 944187SF6582012PISANI LUCILLADUE PONTI SRL02:45:02 01:30:46 11.597 00:07:50 02:43:57
188 945188SF50442011MARTINELLI BARBARADUE PONTI SRL02:45:22 01:31:06 11.616 00:07:51 02:44:17
Righe per pagina::     TUTTE    |   30   |   50   |   100